QPF
0.01 0.03 0.05 0.05 0.03 0.03 0.04 0.04 0.03 0.03 0.03 0.02 0.03 0.02 0.03 0.04 0.04 0.05 0.05 0.07 0.08 0.07 0.06 0.07 0.09 0.08 0.07 0.06 0.06 0.07 0.07 0.07 0.07 0.06 0.08 0.09 0.08 0.07
0.02 0.04 0.05 0.06 0.05 0.04 0.04 0.05 0.04 0.03 0.03 0.03 0.02 0.02 0.03 0.03 0.05 0.06 0.05 0.06 0.06 0.05 0.04 0.05 0.05 0.05 0.05 0.05 0.05 0.06 0.06 0.06 0.06 0.05 0.05 0.06 0.08 0.06
0.05 0.05 0.05 0.06 0.05 0.05 0.06 0.05 0.05 0.05 0.04 0.04 0.03 0.04 0.05 0.07 0.08 0.07 0.07 0.06 0.06 0.05 0.04 0.03 0.04 0.04 0.04 0.05 0.05 0.05 0.05 0.05 0.05 0.05 0.06 0.06 0.05 0.05
0.05 0.05 0.05 0.06 0.06 0.07 0.06 0.04 0.05 0.05 0.05 0.05 0.04 0.05 0.07 0.12 0.10 0.08 0.07 0.06 0.06 0.07 0.06 0.05 0.05 0.04 0.05 0.06 0.06 0.07 0.07 0.07 0.06 0.05 0.04 0.04 0.03 0.04
0.04 0.04 0.05 0.05 0.05 0.06 0.04 0.04 0.04 0.04 0.03 0.03 0.03 0.03 0.03 0.04 0.05 0.05 0.05 0.06 0.05 0.05 0.06 0.07 0.07 0.07 0.06 0.06 0.06 0.06 0.07 0.07 0.06 0.06 0.05 0.04 0.04 0.03
0.04 0.04 0.04 0.04 0.04 0.06 0.04 0.03 0.03 0.02 0.02 0.02 0.02 0.01 0.01 0.02 0.02 0.04 0.05 0.04 0.03 0.03 0.04 0.06 0.08 0.08 0.08 0.07 0.06 0.05 0.05 0.05 0.04 0.03 0.03 0.03 0.03 0.03
0.04 0.04 0.03 0.03 0.04 0.04 0.02 0.02 0.03 0.02 0.02 0.02 0.02 0.02 0.03 0.04 0.05 0.05 0.04 0.03 0.02 0.02 0.02 0.02 0.04 0.05 0.07 0.08 0.07 0.06 0.05 0.05 0.03 0.02 0.02 0.02 0.02 0.02
0.07 0.05 0.04 0.03 0.03 0.03 0.03 0.03 0.03 0.02 0.03 0.03 0.03 0.03 0.03 0.03 0.02 0.02 0.03 0.03 0.02 0.01 0.01 0.02 0.03 0.03 0.03 0.04 0.05 0.06 0.06 0.07 0.06 0.04 0.02 0.02 0.01 0.01
0.06 0.05 0.03 0.01 0.01 0.02 0.02 0.03 0.02 0.02 0.02 0.02 0.01 0.01 0.01 0.01 0.01 0.01 0.01 0.02 0.02 0.02 0.02 0.01 0.01 0.01 0.01 0.01 0.02 0.02 0.03 0.05 0.05 0.04 0.03 0.02 0.02 0.02
0.01 0.02 0.01 0.01 0.01 0.01 0.01 0.01 0.01 0.01 0.01 0.02 0.02 0.01 0.01 0.01 0.01 0.02 0.02 0.02 0.01 0.01 0.01 0.01 0.01 0.01 0.01 0.01 0.01 0.01 0.02 0.04 0.05 0.05 0.03 0.02 0.02 0.01
0.01 0.01 0.00 0.00 0.00 0.01 0.01 0.01 0.01 0.01 0.01 0.01 0.02 0.02 0.01 0.01 0.01 0.01 0.01 0.01 0.01 0.01 0.01 0.01 0.01 0.02 0.02 0.01 0.02 0.02 0.03 0.03 0.04 0.05 0.05 0.04 0.02 0.02
0.01 0.01 0.01 0.01 0.01 0.01 0.01 0.00 0.00 0.00 0.01 0.01 0.01 0.01 0.01 0.01 0.01 0.01 0.01 0.01 0.01 0.01 0.01 0.01 0.01 0.02 0.02 0.02 0.01 0.02 0.03 0.03 0.04 0.05 0.05 0.05 0.04 0.03
0.01 0.01 0.01 0.01 0.01 0.01 0.01 0.01 0.01 0.01 0.01 0.01 0.01 0.01 0.01 0.01 0.01 0.01 0.01 0.01 0.01 0.02 0.02 0.03 0.03 0.03 0.02 0.02 0.02 0.02 0.03 0.04 0.04 0.04 0.05 0.04 0.04 0.03
0.03 0.02 0.01 0.01 0.01 0.01 0.01 0.01 0.01 0.01 0.01 0.01 0.01 0.01 0.01 0.01 0.01 0.01 0.01 0.02 0.02 0.03 0.04 0.05 0.05 0.05 0.05 0.04 0.05 0.05 0.04 0.04 0.04 0.04 0.03 0.03 0.03 0.03
0.03 0.03 0.02 0.02 0.02 0.02 0.02 0.02 0.01 0.01 0.01 0.01 0.01 0.01 0.01 0.02 0.02 0.01 0.01 0.02 0.02 0.02 0.03 0.04 0.05 0.05 0.04 0.04 0.04 0.04 0.04 0.04 0.03 0.03 0.03 0.02 0.02 0.02
0.03 0.03 0.03 0.03 0.02 0.02 0.02 0.01 0.02 0.02 0.01 0.01 0.01 0.01 0.01 0.02 0.02 0.02 0.01 0.01 0.01 0.01 0.02 0.02 0.02 0.03 0.03 0.02 0.02 0.03 0.03 0.03 0.02 0.02 0.02 0.02 0.02 0.02
0.04 0.03 0.02 0.02 0.02 0.01 0.01 0.01 0.02 0.01 0.01 0.01 0.01 0.01 0.02 0.02 0.02 0.02 0.02 0.02 0.01 0.02 0.02 0.02 0.02 0.02 0.02 0.03 0.03 0.02 0.02 0.02 0.01 0.01 0.02 0.02 0.02 0.02
0.03 0.02 0.01 0.01 0.01 0.01 0.01 0.01 0.01 0.01 0.01 0.01 0.01 0.01 0.01 0.02 0.02 0.02 0.04 0.04 0.02 0.02 0.02 0.02 0.02 0.02 0.02 0.01 0.01 0.01 0.01 0.01 0.01 0.01 0.01 0.02 0.02 0.02
0.03 0.02 0.02 0.02 0.02 0.02 0.02 0.01 0.01 0.01 0.02 0.02 0.02 0.03 0.03 0.03 0.02 0.02 0.03 0.04 0.03 0.03 0.03 0.03 0.02 0.02 0.01 0.01 0.00 0.01 0.01 0.02 0.02 0.01 0.01 0.01 0.01 0.01
0.04 0.03 0.03 0.03 0.03 0.03 0.03 0.03 0.03 0.03 0.03 0.03 0.04 0.04 0.05 0.05 0.03 0.02 0.02 0.02 0.03 0.04 0.04 0.04 0.03 0.02 0.01 0.01 0.00 0.00 0.01 0.01 0.01 0.01 0.01 0.01 0.01 0.01
0.04 0.03 0.03 0.03 0.03 0.04 0.05 0.05 0.06 0.06 0.05 0.05 0.05 0.05 0.04 0.04 0.04 0.04 0.03 0.03 0.03 0.02 0.03 0.03 0.03 0.02 0.01 0.01 0.01 0.01 0.01 0.01 0.01 0.01 0.01 0.01 0.01 0.01
0.04 0.04 0.04 0.04 0.04 0.04 0.04 0.04 0.04 0.05 0.06 0.06 0.04 0.05 0.05 0.04 0.03 0.03 0.04 0.04 0.03 0.03 0.03 0.03 0.03 0.03 0.02 0.02 0.02 0.01 0.01 0.01 0.01 0.01 0.01 0.01 0.01 0.01
0.04 0.04 0.04 0.04 0.04 0.04 0.04 0.04 0.05 0.05 0.04 0.04 0.04 0.04 0.05 0.05 0.04 0.03 0.03 0.04 0.04 0.04 0.04 0.04 0.04 0.03 0.03 0.03 0.03 0.03 0.02 0.02 0.02 0.02 0.02 0.01 0.01 0.02
MSLP
1014.87 1015.11 1015.37 1015.63 1015.88 1016.08 1016.24 1016.33 1016.38 1016.38 1016.35 1016.30 1016.25 1016.18 1016.12 1016.04 1015.96 1015.86 1015.76 1015.65 1015.54 1015.43 1015.32 1015.21 1015.10 1014.98 1014.84 1014.70 1014.55 1014.41 1014.30 1014.23 1014.21 1014.25 1014.34 1014.46 1014.59 1014.71
1014.34 1014.58 1014.84 1015.09 1015.34 1015.56 1015.75 1015.91 1016.04 1016.15 1016.24 1016.32 1016.37 1016.41 1016.41 1016.36 1016.28 1016.16 1016.00 1015.83 1015.64 1015.47 1015.31 1015.16 1015.04 1014.92 1014.80 1014.68 1014.56 1014.45 1014.35 1014.28 1014.25 1014.25 1014.30 1014.37 1014.45 1014.52
1013.85 1014.09 1014.34 1014.58 1014.82 1015.05 1015.27 1015.47 1015.67 1015.87 1016.06 1016.25 1016.41 1016.54 1016.62 1016.62 1016.56 1016.44 1016.25 1016.03 1015.80 1015.57 1015.36 1015.18 1015.04 1014.91 1014.80 1014.69 1014.59 1014.49 1014.40 1014.33 1014.28 1014.26 1014.26 1014.29 1014.32 1014.34
1013.38 1013.63 1013.88 1014.13 1014.37 1014.60 1014.83 1015.06 1015.31 1015.57 1015.84 1016.12 1016.37 1016.59 1016.74 1016.81 1016.80 1016.69 1016.51 1016.28 1016.02 1015.76 1015.51 1015.30 1015.13 1014.99 1014.86 1014.76 1014.65 1014.54 1014.44 1014.35 1014.28 1014.23 1014.20 1014.18 1014.17 1014.16
1012.92 1013.20 1013.47 1013.72 1013.97 1014.21 1014.45 1014.70 1014.97 1015.27 1015.60 1015.93 1016.26 1016.55 1016.78 1016.92 1016.96 1016.90 1016.76 1016.54 1016.29 1016.02 1015.76 1015.53 1015.33 1015.16 1015.01 1014.86 1014.73 1014.60 1014.46 1014.34 1014.23 1014.14 1014.08 1014.03 1013.99 1013.95
1012.44 1012.75 1013.06 1013.35 1013.62 1013.87 1014.12 1014.39 1014.68 1014.99 1015.34 1015.72 1016.09 1016.43 1016.72 1016.93 1017.04 1017.05 1016.97 1016.80 1016.58 1016.33 1016.08 1015.83 1015.60 1015.39 1015.20 1015.01 1014.82 1014.63 1014.45 1014.27 1014.12 1013.99 1013.88 1013.80 1013.74 1013.68
1011.90 1012.26 1012.62 1012.96 1013.27 1013.56 1013.84 1014.12 1014.41 1014.73 1015.09 1015.47 1015.86 1016.23 1016.57 1016.84 1017.02 1017.10 1017.09 1017.00 1016.84 1016.63 1016.40 1016.15 1015.90 1015.65 1015.41 1015.15 1014.89 1014.64 1014.38 1014.14 1013.93 1013.75 1013.60 1013.49 1013.41 1013.34
1011.28 1011.70 1012.12 1012.53 1012.91 1013.25 1013.57 1013.87 1014.17 1014.48 1014.82 1015.19 1015.57 1015.96 1016.32 1016.63 1016.87 1017.03 1017.10 1017.08 1016.99 1016.84 1016.65 1016.41 1016.15 1015.87 1015.57 1015.25 1014.92 1014.59 1014.26 1013.96 1013.68 1013.45 1013.26 1013.11 1013.01 1012.92
1010.58 1011.06 1011.56 1012.05 1012.51 1012.92 1013.29 1013.62 1013.93 1014.24 1014.56 1014.90 1015.26 1015.63 1015.98 1016.31 1016.59 1016.81 1016.95 1017.01 1016.99 1016.91 1016.76 1016.55 1016.30 1016.00 1015.66 1015.29 1014.90 1014.50 1014.10 1013.72 1013.39 1013.10 1012.87 1012.69 1012.55 1012.45
1009.83 1010.37 1010.94 1011.52 1012.06 1012.56 1012.99 1013.37 1013.70 1014.01 1014.31 1014.61 1014.93 1015.26 1015.59 1015.91 1016.20 1016.45 1016.64 1016.76 1016.81 1016.79 1016.69 1016.52 1016.28 1015.99 1015.64 1015.24 1014.80 1014.36 1013.91 1013.49 1013.10 1012.77 1012.50 1012.28 1012.11 1011.97
1009.09 1009.67 1010.31 1010.97 1011.60 1012.17 1012.68 1013.10 1013.47 1013.78 1014.06 1014.32 1014.59 1014.87 1015.16 1015.44 1015.72 1015.97 1016.19 1016.35 1016.45 1016.48 1016.43 1016.30 1016.10 1015.83 1015.49 1015.10 1014.66 1014.20 1013.73 1013.29 1012.87 1012.51 1012.19 1011.94 1011.73 1011.55
1008.43 1009.04 1009.72 1010.44 1011.14 1011.79 1012.36 1012.84 1013.24 1013.56 1013.82 1014.05 1014.27 1014.49 1014.72 1014.96 1015.20 1015.43 1015.64 1015.82 1015.94 1016.01 1016.01 1015.93 1015.77 1015.55 1015.25 1014.89 1014.48 1014.04 1013.59 1013.14 1012.72 1012.34 1012.00 1011.71 1011.45 1011.23
1007.93 1008.54 1009.24 1009.99 1010.74 1011.45 1012.07 1012.59 1013.02 1013.35 1013.60 1013.80 1013.98 1014.14 1014.31 1014.49 1014.67 1014.87 1015.05 1015.21 1015.35 1015.43 1015.47 1015.44 1015.33 1015.16 1014.93 1014.63 1014.28 1013.89 1013.48 1013.07 1012.66 1012.28 1011.92 1011.60 1011.30 1011.03
1007.66 1008.24 1008.93 1009.68 1010.44 1011.16 1011.81 1012.36 1012.81 1013.15 1013.40 1013.58 1013.72 1013.83 1013.94 1014.05 1014.18 1014.32 1014.46 1014.60 1014.72 1014.82 1014.87 1014.88 1014.83 1014.72 1014.56 1014.33 1014.06 1013.74 1013.40 1013.03 1012.66 1012.29 1011.93 1011.59 1011.25 1010.93
1007.66 1008.18 1008.82 1009.53 1010.27 1010.98 1011.62 1012.17 1012.62 1012.96 1013.20 1013.36 1013.47 1013.55 1013.61 1013.68 1013.75 1013.84 1013.93 1014.03 1014.13 1014.22 1014.28 1014.31 1014.31 1014.26 1014.16 1014.01 1013.82 1013.58 1013.31 1013.00 1012.68 1012.33 1011.98 1011.62 1011.26 1010.90
1007.90 1008.35 1008.91 1009.55 1010.22 1010.88 1011.49 1012.02 1012.44 1012.77 1013.00 1013.15 1013.24 1013.29 1013.32 1013.35 1013.38 1013.42 1013.47 1013.53 1013.60 1013.67 1013.73 1013.78 1013.80 1013.79 1013.75 1013.67 1013.55 1013.38 1013.17 1012.93 1012.65 1012.33 1011.99 1011.63 1011.26 1010.87
1008.35 1008.70 1009.17 1009.72 1010.30 1010.88 1011.41 1011.88 1012.27 1012.57 1012.78 1012.92 1013.00 1013.04 1013.05 1013.05 1013.05 1013.06 1013.08 1013.11 1013.15 1013.20 1013.25 1013.29 1013.33 1013.35 1013.34 1013.31 1013.24 1013.12 1012.97 1012.77 1012.53 1012.25 1011.93 1011.58 1011.20 1010.81
1008.90 1009.17 1009.54 1009.97 1010.44 1010.92 1011.36 1011.75 1012.08 1012.34 1012.53 1012.65 1012.72 1012.75 1012.76 1012.75 1012.74 1012.74 1012.74 1012.75 1012.77 1012.79 1012.83 1012.87 1012.90 1012.93 1012.94 1012.93 1012.89 1012.81 1012.69 1012.53 1012.33 1012.08 1011.78 1011.45 1011.09 1010.71
1009.45 1009.64 1009.91 1010.24 1010.59 1010.95 1011.29 1011.60 1011.85 1012.05 1012.21 1012.31 1012.37 1012.41 1012.42 1012.42 1012.41 1012.40 1012.40 1012.40 1012.41 1012.43 1012.45 1012.48 1012.51 1012.54 1012.56 1012.55 1012.53 1012.47 1012.38 1012.24 1012.06 1011.84 1011.58 1011.28 1010.95 1010.60
1009.88 1010.01 1010.20 1010.43 1010.68 1010.93 1011.16 1011.38 1011.56 1011.70 1011.81 1011.89 1011.94 1011.98 1012.00 1012.01 1012.01 1012.01 1012.02 1012.03 1012.04 1012.06 1012.08 1012.11 1012.14 1012.17 1012.19 1012.19 1012.17 1012.13 1012.05 1011.94 1011.79 1011.60 1011.38 1011.12 1010.84 1010.54
1010.12 1010.21 1010.34 1010.49 1010.64 1010.80 1010.95 1011.07 1011.18 1011.27 1011.34 1011.39 1011.43 1011.46 1011.48 1011.51 1011.53 1011.54 1011.57 1011.59 1011.62 1011.65 1011.69 1011.73 1011.77 1011.81 1011.84 1011.85 1011.84 1011.82 1011.76 1011.68 1011.56 1011.41 1011.24 1011.03 1010.81 1010.57
1010.13 1010.20 1010.29 1010.38 1010.47 1010.56 1010.63 1010.69 1010.74 1010.78 1010.80 1010.83 1010.85 1010.87 1010.90 1010.92 1010.95 1010.99 1011.03 1011.08 1011.13 1011.18 1011.25 1011.31 1011.37 1011.44 1011.49 1011.53 1011.55 1011.55 1011.52 1011.48 1011.40 1011.31 1011.19 1011.05 1010.89 1010.72
1009.92 1009.99 1010.06 1010.12 1010.18 1010.22 1010.24 1010.26 1010.26 1010.26 1010.26 1010.26 1010.26 1010.27 1010.28 1010.30 1010.33 1010.37 1010.43 1010.49 1010.56 1010.65 1010.74 1010.84 1010.94 1011.03 1011.12 1011.20 1011.26 1011.30 1011.32 1011.33 1011.31 1011.27 1011.21 1011.15 1011.06 1010.97
Thickness
5738 5736 5734 5733 5731 5729 5726 5722 5714 5707 5707 5711 5711 5713 5713 5712 5711 5709 5708 5707 5706 5705 5704 5703 5702 5700 5699 5697 5695 5693 5691 5689 5688 5687 5686 5685 5684 5684
5735 5733 5731 5730 5728 5726 5723 5721 5717 5711 5705 5707 5707 5707 5707 5707 5705 5703 5702 5700 5700 5698 5697 5695 5693 5692 5691 5689 5688 5686 5684 5682 5681 5680 5679 5678 5677 5677
5731 5729 5727 5726 5723 5722 5720 5717 5714 5710 5704 5702 5702 5701 5700 5699 5697 5696 5694 5693 5692 5691 5690 5687 5685 5684 5683 5682 5680 5678 5676 5675 5674 5673 5672 5671 5670 5669
5726 5724 5722 5721 5718 5717 5715 5712 5710 5708 5703 5697 5695 5694 5693 5692 5691 5689 5687 5686 5684 5683 5682 5680 5678 5676 5675 5674 5672 5670 5669 5667 5666 5666 5665 5664 5662 5661
5723 5720 5718 5715 5712 5711 5709 5707 5705 5703 5699 5694 5690 5689 5687 5685 5683 5681 5680 5678 5677 5675 5674 5672 5671 5669 5668 5667 5665 5664 5662 5661 5660 5658 5657 5656 5654 5653
5718 5716 5714 5711 5708 5706 5704 5701 5699 5696 5692 5689 5685 5682 5680 5678 5676 5673 5671 5670 5669 5668 5666 5664 5663 5661 5660 5659 5658 5656 5655 5653 5652 5651 5650 5648 5647 5645
5712 5710 5709 5707 5705 5703 5700 5696 5694 5690 5686 5682 5678 5675 5673 5670 5668 5666 5663 5662 5660 5659 5658 5656 5655 5653 5652 5651 5650 5649 5648 5647 5645 5644 5643 5641 5639 5637
5706 5704 5703 5701 5700 5698 5696 5693 5690 5686 5681 5677 5674 5670 5668 5666 5664 5662 5657 5654 5651 5652 5650 5648 5647 5646 5645 5644 5644 5643 5641 5640 5638 5637 5635 5634 5632 5630
5702 5699 5698 5696 5694 5691 5689 5687 5684 5682 5680 5676 5671 5667 5665 5663 5660 5656 5654 5651 5649 5648 5645 5641 5641 5639 5639 5638 5637 5636 5634 5632 5631 5629 5627 5626 5624 5622
5698 5695 5692 5689 5687 5684 5682 5679 5677 5675 5674 5672 5669 5666 5664 5661 5658 5655 5651 5647 5645 5643 5642 5636 5635 5633 5633 5632 5631 5629 5628 5626 5624 5622 5620 5618 5616 5613
5692 5690 5687 5683 5681 5678 5674 5671 5669 5668 5667 5666 5664 5662 5659 5657 5654 5649 5644 5640 5636 5636 5636 5633 5630 5628 5627 5626 5625 5624 5622 5620 5618 5615 5613 5610 5608 5605
5685 5683 5681 5678 5675 5672 5668 5664 5661 5659 5658 5657 5655 5654 5652 5650 5648 5645 5641 5636 5631 5629 5631 5628 5625 5622 5619 5620 5619 5617 5615 5613 5611 5608 5606 5603 5600 5597
5677 5676 5674 5672 5669 5665 5662 5659 5657 5654 5651 5648 5646 5645 5644 5642 5641 5639 5637 5634 5629 5627 5627 5624 5620 5617 5614 5611 5611 5610 5608 5606 5603 5601 5598 5596 5593 5590
5672 5670 5668 5666 5662 5659 5656 5654 5652 5648 5644 5641 5638 5637 5635 5634 5634 5634 5632 5630 5629 5627 5625 5622 5618 5614 5609 5604 5603 5603 5601 5599 5597 5594 5591 5589 5585 5583
5668 5666 5662 5659 5656 5653 5651 5648 5645 5641 5637 5634 5632 5631 5631 5630 5629 5627 5625 5624 5622 5621 5620 5618 5615 5611 5607 5602 5598 5596 5594 5592 5590 5587 5584 5581 5579 5576
5660 5658 5656 5652 5649 5647 5644 5641 5638 5635 5633 5630 5629 5628 5626 5624 5622 5621 5618 5616 5613 5612 5613 5612 5610 5607 5602 5599 5595 5591 5589 5586 5585 5582 5579 5575 5573 5570
5651 5648 5646 5643 5641 5638 5636 5633 5631 5628 5626 5625 5623 5621 5620 5618 5616 5614 5612 5609 5606 5604 5603 5603 5602 5601 5599 5595 5590 5588 5585 5583 5581 5578 5573 5570 5568 5566
5643 5641 5639 5637 5635 5633 5630 5627 5625 5623 5621 5619 5617 5616 5614 5612 5610 5607 5605 5602 5600 5599 5597 5595 5593 5590 5589 5588 5588 5585 5581 5579 5576 5573 5569 5565 5562 5561
5636 5634 5632 5630 5628 5626 5624 5622 5620 5618 5616 5613 5611 5610 5609 5606 5604 5601 5598 5596 5594 5593 5592 5590 5586 5583 5580 5580 5582 5582 5578 5575 5571 5568 5564 5561 5559 5557
5629 5628 5626 5624 5621 5619 5617 5616 5614 5612 5610 5608 5606 5604 5602 5600 5598 5595 5593 5591 5589 5587 5586 5584 5582 5580 5578 5577 5576 5575 5575 5571 5567 5563 5560 5557 5554 5552
5623 5621 5619 5617 5615 5613 5611 5610 5608 5606 5604 5602 5600 5599 5597 5594 5592 5590 5588 5586 5583 5581 5580 5579 5580 5579 5576 5572 5569 5568 5568 5568 5566 5562 5557 5551 5546 5543
5617 5615 5613 5611 5609 5606 5604 5602 5600 5599 5597 5595 5594 5593 5591 5589 5586 5584 5582 5580 5578 5577 5576 5575 5573 5571 5568 5565 5564 5563 5561 5560 5559 5558 5555 5552 5546 5540
5612 5610 5608 5605 5603 5600 5597 5595 5594 5592 5591 5589 5587 5586 5584 5582 5581 5579 5577 5575 5573 5571 5568 5566 5565 5563 5561 5560 5558 5556 5554 5552 5550 5549 5548 5547 5545 5543